Location: Unspecified
(0.0000°N, 0.0000°E)
Time: 09:49:14
(UTC+02:00)

NOAA 12 - Visible Passes

Search period start: 17 August 2017 00:00
Search period end: 27 August 2017 00:00
Orbit: 795 x 816 km, 98.6° (Epoch: 16 August)

Date Brightness Start Highest point End Pass type
(mag) Time Alt. Az. Time Alt. Az. Time Alt. Az.
17 Aug 4.8 20:24:22 10° SE 20:29:07 34° ENE 20:33:49 10° NNE visible
17 Aug 6.8 22:05:39 10° SW 22:08:36 15° WSW 22:11:34 10° WNW visible
18 Aug 5.9 21:39:08 10° SSW 21:43:43 30° WSW 21:48:16 10° NW visible
19 Aug 4.6 21:13:35 10° S 21:18:49 60° WSW 21:23:59 10° NNW visible
20 Aug 4.1 20:48:37 10° SSE 20:53:54 68° ENE 20:59:06 10° N visible
21 Aug 4.8 20:24:14 10° SE 20:28:58 34° ENE 20:33:40 10° NNE visible
21 Aug 6.8 22:05:32 10° SW 22:08:28 15° WSW 22:11:24 10° WNW visible
22 Aug 5.9 21:39:00 10° SSW 21:43:35 30° WSW 21:48:08 10° NW visible
23 Aug 4.6 21:13:28 10° S 21:18:40 60° WSW 21:23:50 10° NNW visible
24 Aug 4.0 20:48:30 10° SSE 20:53:45 68° ENE 20:58:57 10° N visible
25 Aug 4.8 20:24:06 10° SE 20:28:49 34° ENE 20:33:30 10° NNE visible
25 Aug 6.8 22:05:24 10° SW 22:08:19 15° WSW 22:11:15 10° WNW visible
26 Aug 5.9 21:38:53 10° SSW 21:43:26 30° WSW 21:47:58 10° NW visible
